Terug naar catalogus

H-2 R/B

ActiefPO
NORAD 24279·ROCKET BODY·🇯🇵 Japan

Gelanceerd Aug 17, 1996 vanaf Tanegashima Space Center

Loading…

Volgende Passages (komende 24 uur)

TLE

VersSource: Space-Track

Epoch: Sep 14, 2026, 18:13 UTC

1 24279U 96046C   26257.75950784  .00000006  00000-0  55084-4 0  9998
2 24279  98.7599 184.8210 0298698 315.9876  68.1204 13.47493358478634

Volg H-2 R/B in realtime met AllMySat

Download on the App Store